Simultaneous Nadir Overpasses (SNOs) Predictions

Prediction of SNOs between NOAA-21 and NOAA-19 Satellite Orbit:

Table of predicted SNOs for the next 14.0 days since TLE Epoch: 2/24/2024
Index Date (NOAA-21) Time (NOAA-21) Lat,Lon (NOAA-21) SZA (NOAA-21 ) Date (NOAA-19) Time (NOAA-19) Lat,Lon (NOAA-19) SZA (NOAA-19 ) Distance(km) Time Diff (sec)
1 03/02/2024 03:34:36 -73.40, -63.59 99.24 03/02/2024 03:33:24 -73.41, -64.84 99.12 39.89 72
2 03/02/2024 04:25:28 73.70, 103.02 81.09 03/02/2024 04:24:20 73.71, 103.13 81.12 3.63 68
3 03/02/2024 05:16:12 -73.69, -89.65 98.93 03/02/2024 05:15:17 -73.67, -89.70 98.94 3.20 55
4 03/02/2024 06:06:58 73.70, 77.65 81.07 03/02/2024 06:06:18 73.73, 77.68 81.10 3.39 40
5 03/02/2024 06:57:43 -73.74,-115.14 98.90 03/02/2024 06:57:14 -73.73,-115.03 98.91 3.49 29
6 03/02/2024 07:48:29 73.75, 52.16 81.09 03/02/2024 07:48:16 73.74, 52.23 81.09 2.35 13
7 03/02/2024 08:39:13 -73.74,-140.52 98.93 03/02/2024 08:39:12 -73.75,-140.49 98.92 1.31 1
8 03/02/2024 09:29:59 73.75, 26.78 81.07 03/02/2024 09:30:14 73.76, 26.78 81.08 1.55 15
9 03/02/2024 10:20:43 -73.74,-165.89 98.96 03/02/2024 10:21:10 -73.76,-165.94 98.94 3.12 27
10 03/02/2024 11:11:30 73.79, 1.29 81.09 03/02/2024 11:12:12 73.78, 1.33 81.06 2.43 42
11 03/02/2024 12:02:14 -73.79, 168.62 98.93 03/02/2024 12:03:08 -73.78, 168.61 98.95 0.88 54
12 03/02/2024 12:53:00 73.79, -24.08 81.07 03/02/2024 12:54:10 73.79, -24.12 81.05 1.05 70
13 03/02/2024 13:43:50 -74.08, 142.53 98.62 03/02/2024 13:45:01 -74.04, 143.78 98.77 38.67 71



Historial Predications of SNOs between NOAA-21 and NOAA-19
